Showing default

ACS 3, 59588

Orbit data source: Space-Track

ACS 3, 59588 is a payload satellite owned by ARC (US) in SSO that was launched on Tue, 23 Apr 2024 UTC via an ELECTRON launch vehicle from the Rocket Lab Launch Complex (RLLC). Payload-class satellites include a variety of spacecraft equipped with specific instruments for various scientific and technological missions. These include communications satellites like Starlink; space stations such as the ISS; scientific satellites like the Hubble; Earth observation satellites from companies like Planet Labs, Umbra, and HawkEye 360; GPS; miniature CubeSats for education and research; and military/defense satellites.

Loading next visibility...
Identifier
59588, 2024-077B
Orbit
SSO
Last TLE update
6 hours ago
Origin
Manufacturer
ARC/NANAVU
Mission
Operational spacecraft
Bus & Motor
CUBESAT 12U, Unknown motor
Mass
16.1 kg wet, 16.1 kg dry
Launch date (UTC)
2024-04-23 (1 year ago)
Launch vehicle
ELECTRON
Launch site
Rocket Lab Launch Complex (RLLC)
Object type
Payload
Rocket body
Debris
Shape & HBR
Unknown
Radar Cross Section
Large (>1 m²)

Expand to show TLE details & history

TLE from 6 hours ago
0 ACS 3
1 59588U 24077B   25182.84388189  .00008429  00000-0  81591-2 0  9991
2 59588  97.4613 174.0624 0072667  70.6930 290.2068 13.78693769 59510
Epoch: 2025-07-01T20:15Z
TLE epoch observation values (Epoch: 2025-07-01T20:15:11.395Z)
Latitude
0.00002°
Longitude
-49.86859°
Altitude
953.317 km
Speed
7.384 km/s
True Right ascension
11h 36m 14s
True Declination
0° 00' 00"
Sunlit
Object was in daylight at epoch
Visualization orbit readout
Latitude
-57.5692°
Longitude
118.50741°
Altitude
1,043.03 km
Speed
7.303 km/s
Apparent Right ascension
00h 45m 41s
Apparent Declination
-52° 13' 45"
Sunlit
Object is in full shadow
Visualization observer readout
Local Sidereal Time
14:18:37
Azimuth
135.412° SSE
Elevation
-69.867°
Doppler factor
1
Orbital elements
Apogee altitude
1,019.048 km
Perigee altitude
912.317 km
Semi-major axis
7,343.82 km
Eccentricity
0.00727
Inclination
97.4613°
RAAN
174.0624°
Arg. of periapsis
70.693°
True anomaly
Unknown
Mean anomaly
290.2068°
Eccentric anomaly
Unknown
Mean motion
3.44874 °/min
Orbital period
104.39 mins
BSTAR
0.0081591
Loading maneuver chart data...
Loading SW <> Apogee altitude chart data...
Loading historical data...
Loading historical data...
Loading historical data...
Loading historical data...
Loading historical data...
Loading historical data...
Loading historical data...
Other satellites on launch #77 in the year 2024 (2024-04-23 UTC)

ACS 3 Visibility forecast

Observer location: undefined°, undefined°

Span
Click to sort rows by Start time (UTC) header in descending order
Start Az.
Max El. time (UTC)
Max El. Az.
Max El.
End time (UTC)
End Az.
6 mins2025-07-02 10:48:31.248Z53.946° ENE2025-07-02 10:51:31.248Z85.555° E15.689°2025-07-02 10:54:31.248Z118.724° SE
10 mins2025-07-02 12:31:31.248Z3.636° NNE2025-07-02 12:35:31.248Z290.217° WNW43.057°2025-07-02 12:41:31.248Z203.38° SW
8 mins2025-07-02 22:31:31.248Z120.32° SE2025-07-02 22:35:31.248Z62.075° ENE27.678°2025-07-02 22:39:31.248Z11.903° NNE
9 mins2025-07-03 00:14:31.248Z207.725° SW2025-07-03 00:18:31.248Z267.464° W30.016°2025-07-03 00:23:31.248Z329.362° NNW
|